[[{"header":{"parameterUnit":"m.s-1","parameterCategory":1,"la1":30.2991,"la2":30.254,"lo1":-89.0895,"lo2":-89.0444,"dy":0.0017,"dx":0.0017,"nx":28,"ny":28,"refTime":"2026-02-13T09:00:00:Z","depth":0,"parameterNumber":2,"parameterNumberName":"U-component_of_WINDS"},"data":[0,0,0,0,0,0,0,0,0,0,0,0,0,0,0,0,0,0,0,0,0,0,0,0,0,0,0,0,0,0,0,0,0,0,0,0,0,0,0,0,0,0,0,0,0,0,0,0,0,0,0,0,0,0,0,0,0,0,0.5918,0.592,0,0.6043,0.6044,0.6045,0.6106,0.6106,0.6106,0.6106,0.6234,0.6237,0.624,0,0,0,0,0,0,0,0,0,0,0,0,0,0.5733,0.5736,0.5918,0.592,0.5921,0.6042,0.6044,0.6046,0.6106,0.6106,0.6106,0.6106,0.6232,0.6236,0.6241,0,0,0,0,0,0,0,0,0,0,0,0,0,0.5831,0.5737,0.5918,0.5966,0.5972,0.6042,0.6044,0.6046,0.6106,0.6106,0.6106,0.6106,0.6231,0.6236,0.6241,0.6273,0,0,0.6257,0.6259,0,0,0,0,0,0,0,0,0.5825,0.5838,0.5957,0.5963,0.5969,0.6059,0.6026,0.6122,0.6106,0.6055,0.6106,0.6106,0.6175,0.6185,0.6209,0.6279,0.6285,0.6257,0.626,0.6262,0.6264,0,0,0,0,0,0,0,0.5818,0.5833,0.5967,0.5959,0.5966,0.5981,0.5995,0.6044,0.6114,0.6059,0.6064,0.6078,0.6179,0.6203,0.6212,0.6287,0.6257,0.6262,0.6265,0.6267,0.639,0.639,0,0,0,0,0,0,0.5804,0.5826,0.5963,0.5971,0.5896,0.5985,0.6,0.603,0.6113,0.6126,0.6078,0.608,0.6195,0.6206,0.6217,0.626,0.6262,0.6267,0.627,0.639,0.639,0.639,0,0,0,0,0,0,0.5799,0.5815,0.5958,0.59,0.592,0.5988,0.6021,0.6032,0.6057,0.6127,0.614,0.609,0.6195,0.6209,0.6259,0.6265,0.627,0.6274,0.639,0.639,0.639,0.6347,0,0,0,0,0,0,0.5794,0.5813,0.5826,0.59,0.5922,0.5998,0.6021,0.6035,0.6066,0.607,0.6143,0.6155,0.6196,0.6251,0.6264,0.6272,0.6278,0.6389,0.639,0.639,0.6348,0.6345,0.6343,0,0,0,0,0,0.5787,0.5809,0.5827,0.5843,0.594,0.5999,0.6011,0.6059,0.6066,0.608,0.6125,0.6152,0.6262,0.6255,0.627,0.6281,0.6389,0.639,0.639,0.6349,0.6346,0.6343,0,0,0,0,0,0,0.5735,0.582,0.584,0.5887,0.5935,0.6009,0.6027,0.6054,0.6101,0.6104,0.616,0.6176,0.622,0.6256,0.6246,0.6316,0.6328,0.6332,0.6292,0.6289,0.6287,0.6278,0.6282,0,0,0,0,0,0.5728,0.5769,0.5841,0.5875,0.5898,0.5958,0.5986,0.6018,0.607,0.6091,0.614,0.6189,0.6235,0.6264,0.631,0.6353,0.637,0.6367,0.6365,0.6363,0.6365,0.6391,0.6391,0.6392,0.6392,0.6392,0,0,0.5716,0.5768,0.579,0.5866,0.5907,0.5948,0.5975,0.6017,0.6048,0.6098,0.6147,0.6184,0.6244,0.6289,0.6312,0.632,0.6369,0.6364,0.6361,0.6365,0.6391,0.6391,0.6391,0.6392,0.6392,0.6392,0,0,0.5715,0.5758,0.5791,0.5832,0.5894,0.5933,0.5941,0.6011,0.6038,0.6088,0.6126,0.6163,0.6241,0.6282,0.6313,0.6326,0.6353,0.6339,0.6328,0.6352,0.6352,0.6352,0.6357,0.6358,0.6342,0.6341,0.6341,0,0.5692,0.5755,0.5805,0.5844,0.5877,0.5923,0.5957,0.5994,0.6068,0.6089,0.6097,0.6196,0.6239,0.6295,0.6298,0.6321,0.6332,0.6332,0.6348,0.6348,0.6349,0.6355,0.6356,0.6339,0.634,0.634,0.634,0,0.5723,0.5766,0.5786,0.5856,0.589,0.5927,0.5982,0.6011,0.604,0.6079,0.613,0.6183,0.6241,0.6256,0.6285,0.6317,0.632,0.6337,0.635,0.6346,0.6352,0.6355,0.6336,0.6337,0.6338,0.6338,0,0,0.5693,0.579,0.5796,0.5828,0.59,0.5934,0.5973,0.6029,0.6053,0.6102,0.6136,0.62,0.6216,0.6251,0.6285,0.6306,0.6313,0.6321,0.6323,0.6317,0.6351,0.6338,0.6339,0.6331,0.6332,0.6332,0.6346,0,0.5701,0.5773,0.5819,0.5872,0.5912,0.5957,0.5991,0.6038,0.6075,0.6115,0.6156,0.6201,0.6219,0.624,0.6263,0.6307,0.6321,0.6307,0.6363,0.6365,0.6347,0.6343,0.6329,0.634,0.6349,0.6349,0.635,0,0.5721,0.5769,0.5826,0.5893,0.5912,0.5941,0.5997,0.6034,0.6088,0.6114,0.6153,0.6187,0.623,0.6239,0.6298,0.6288,0.6314,0.6339,0.6341,0.6348,0.6357,0.635,0.6344,0.6346,0.6354,0.6353,0.6353,0,0.5693,0.5772,0.5816,0.5843,0.5922,0.5942,0.5976,0.603,0.6061,0.6109,0.613,0.6182,0.6211,0.6251,0.6298,0.6301,0.6353,0.6366,0.6376,0.6374,0.6385,0.6384,0.6383,0.6401,0.6401,0.6401,0.6401,0,0.5698,0.5731,0.5805,0.5832,0.5871,0.5923,0.596,0.5997,0.6046,0.6081,0.6123,0.6155,0.6216,0.6255,0.6293,0.6336,0.6349,0.6371,0.638,0.6367,0.6365,0.6385,0.6386,0.6401,0.6401,0.6401,0.6401,0,0.5674,0.5724,0.5776,0.5846,0.5865,0.589,0.5951,0.5979,0.6018,0.6063,0.6076,0.6138,0.6187,0.6238,0.6304,0.6329,0.6371,0.6385,0.6353,0.6358,0.6365,0.6364,0.6378,0.6383,0.6396,0.6396,0.6396,0,0.5674,0.57,0.5774,0.5801,0.5834,0.5876,0.5908,0.596,0.5991,0.6056,0.6076,0.6128,0.6172,0.6248,0.6299,0.635,0.6365,0.6367,0.6373,0.6359,0.6365,0.6363,0.6366,0.6364,0.6364,0.6364,0.6363,0,0.5668,0.5692,0.5736,0.5789,0.5825,0.587,0.5915,0.5935,0.5996,0.6029,0.608,0.6114,0.6182,0.6233,0.629,0.6325,0.6354,0.6361,0.6366,0.6353,0.6333,0.6344,0.6347,0.636,0.6361,0.6361,0.6361,0.6361,0.5656,0.5682,0.5738,0.5786,0.5825,0.5867,0.5897,0.594,0.5983,0.6042,0.6071,0.6121,0.6175,0.6255,0.6289,0.6329,0.6338,0.6345,0.6347,0.6348,0.6344,0.6326,0.634,0.634,0.634,0.634,0.634,0,0.5653,0.5691,0.5735,0.5797,0.5835,0.5859,0.5911,0.5941,0.5984,0.6032,0.6075,0.6133,0.6183,0.6237,0.629,0.6312,0.6327,0.6324,0.6323,0.6331,0.6334,0.6324,0.6311,0.6311,0.6311,0.6311,0.6311,0.6311,0.5656,0.5701,0.5731,0.5796,0.5834,0.5884,0.5911,0.595,0.5989,0.6051,0.6093,0.6128,0.6179,0.6236,0.6282,0.6297,0.6315,0.6308,0.6327,0.6328,0.6331,0.6333,0.6324,0.6311,0.6311,0.6321,0.6321,0.6321]},{"header":{"parameterUnit":"m.s-1","parameterCategory":1,"la1":30.2991,"la2":30.254,"lo1":-89.0895,"lo2":-89.0444,"dy":0.0017,"dx":0.0017,"nx":28,"ny":28,"refTime":"2026-02-13T09:00:00:Z","depth":0,"parameterNumber":3,"parameterNumberName":"V-component_of_WINDS"},"data":[0,0,0,0,0,0,0,0,0,0,0,0,0,0,0,0,0,0,0,0,0,0,0,0,0,0,0,0,0,0,0,0,0,0,0,0,0,0,0,0,0,0,0,0,0,0,0,0,0,0,0,0,0,0,0,0,0,0,0.7668,0.7668,0,0.7622,0.7621,0.7621,0.7645,0.7647,0.7648,0.7649,0.7594,0.7592,0.7589,0,0,0,0,0,0,0,0,0,0,0,0,0,0.7772,0.777,0.7668,0.7668,0.7667,0.7622,0.7621,0.7621,0.7645,0.7647,0.7648,0.765,0.7595,0.7592,0.7589,0,0,0,0,0,0,0,0,0,0,0,0,0,0.7726,0.7769,0.7669,0.7674,0.7674,0.7622,0.7621,0.762,0.7645,0.7647,0.7649,0.765,0.7596,0.7592,0.7588,0.7526,0,0,0.7576,0.7575,0,0,0,0,0,0,0,0,0.7729,0.7722,0.7674,0.7674,0.7674,0.7642,0.7638,0.7588,0.7644,0.7656,0.7649,0.7651,0.7608,0.7603,0.759,0.7523,0.7521,0.7576,0.7574,0.7572,0.7571,0,0,0,0,0,0,0,0.7732,0.7724,0.765,0.7673,0.7673,0.7677,0.7672,0.7628,0.7621,0.7655,0.7657,0.7651,0.7608,0.7594,0.7589,0.752,0.7576,0.7573,0.757,0.7569,0.7398,0.7396,0,0,0,0,0,0,0.7736,0.7727,0.7651,0.7648,0.7707,0.7673,0.7669,0.765,0.7622,0.762,0.765,0.7652,0.76,0.7594,0.7587,0.7511,0.7572,0.7568,0.7566,0.74,0.7397,0.7395,0,0,0,0,0,0,0.7738,0.7729,0.7653,0.7688,0.7679,0.767,0.7648,0.7648,0.7634,0.7618,0.7616,0.7637,0.7601,0.7593,0.7541,0.751,0.7566,0.7563,0.7403,0.7399,0.7396,0.7359,0,0,0,0,0,0,0.7741,0.7729,0.7707,0.7688,0.7677,0.761,0.7647,0.7646,0.7627,0.7631,0.7605,0.7603,0.7602,0.7547,0.7537,0.7505,0.756,0.7405,0.7401,0.7397,0.7363,0.7355,0.7348,0,0,0,0,0,0.7744,0.7697,0.7706,0.7697,0.7649,0.7608,0.7602,0.7603,0.7625,0.7601,0.7591,0.7604,0.7515,0.7541,0.7531,0.7497,0.7407,0.7402,0.7398,0.7367,0.7357,0.7349,0,0,0,0,0,0,0.7711,0.7695,0.7704,0.765,0.7631,0.7613,0.7583,0.7593,0.7565,0.7569,0.757,0.7564,0.751,0.7499,0.7528,0.7434,0.7464,0.7457,0.7444,0.7435,0.7427,0.7431,0.7556,0,0,0,0,0,0.7698,0.7668,0.7655,0.7608,0.7598,0.7592,0.7574,0.7577,0.7556,0.7547,0.7533,0.7511,0.7477,0.7455,0.7424,0.7362,0.7356,0.7333,0.7326,0.732,0.7313,0.7278,0.7268,0.7379,0.7379,0.7379,0,0,0.7669,0.7657,0.7638,0.7601,0.7586,0.7553,0.7585,0.7549,0.7523,0.7541,0.7492,0.7481,0.7455,0.7398,0.7372,0.7386,0.7281,0.7313,0.7309,0.7305,0.7272,0.7262,0.7252,0.7376,0.7376,0.7377,0,0,0.7601,0.7589,0.7549,0.7534,0.7512,0.7508,0.7498,0.7479,0.7473,0.7424,0.7436,0.7405,0.7348,0.7329,0.7312,0.7236,0.7246,0.7225,0.7186,0.7152,0.7143,0.7135,0.7107,0.7097,0.7219,0.7219,0.7219,0,0.7568,0.7521,0.7526,0.7489,0.7472,0.7488,0.7446,0.743,0.7398,0.7385,0.7402,0.7331,0.7315,0.7253,0.7234,0.722,0.7207,0.7228,0.7144,0.7137,0.7129,0.7103,0.7092,0.7216,0.7217,0.7217,0.7217,0,0.7481,0.7448,0.7417,0.7388,0.7368,0.7328,0.7325,0.7303,0.7307,0.7301,0.725,0.7231,0.7196,0.7182,0.7185,0.712,0.7129,0.7145,0.7175,0.7116,0.7091,0.7081,0.7213,0.7214,0.7215,0.7215,0,0,0.739,0.7365,0.7353,0.734,0.7317,0.729,0.7251,0.7219,0.7199,0.7176,0.7141,0.7093,0.7108,0.7088,0.7089,0.7059,0.6999,0.7079,0.7078,0.7064,0.6924,0.6912,0.69,0.7005,0.7004,0.7002,0.6926,0,0.7319,0.7253,0.7256,0.7193,0.7161,0.7176,0.7141,0.7122,0.7115,0.7085,0.7076,0.7042,0.7064,0.7053,0.7024,0.7012,0.6971,0.7018,0.6971,0.697,0.6977,0.6887,0.6874,0.6804,0.6916,0.6915,0.6914,0,0.7228,0.7205,0.7139,0.712,0.7107,0.7076,0.7046,0.7019,0.6996,0.6993,0.6971,0.6977,0.6934,0.6966,0.6906,0.6938,0.6918,0.691,0.6907,0.6902,0.6938,0.6879,0.6782,0.6771,0.6898,0.6899,0.6901,0,0.7168,0.7119,0.7074,0.7062,0.7039,0.7016,0.7005,0.6985,0.6965,0.6939,0.6925,0.6893,0.6875,0.6849,0.6844,0.6868,0.6784,0.6815,0.6778,0.6778,0.6759,0.6761,0.6657,0.6748,0.6748,0.6748,0.6748,0,0.7089,0.7048,0.7046,0.7018,0.6972,0.6975,0.6928,0.6918,0.69,0.6868,0.6878,0.6848,0.6845,0.6813,0.6809,0.6759,0.6751,0.6745,0.6745,0.6744,0.6745,0.6731,0.6736,0.6745,0.6746,0.6747,0.6747,0,0.7013,0.7011,0.6962,0.6945,0.694,0.6906,0.689,0.6862,0.6856,0.6816,0.6806,0.6796,0.6759,0.6752,0.6707,0.6705,0.6645,0.665,0.6654,0.6654,0.6617,0.662,0.65,0.6484,0.6587,0.6586,0.6585,0,0.6963,0.6932,0.6912,0.6893,0.6881,0.685,0.683,0.6831,0.681,0.6782,0.6756,0.6721,0.6692,0.6631,0.6618,0.6584,0.6587,0.6547,0.6582,0.6582,0.6586,0.6587,0.6584,0.654,0.6539,0.6539,0.6538,0,0.6873,0.6874,0.6846,0.6818,0.6795,0.6773,0.6751,0.6734,0.6732,0.6707,0.667,0.6648,0.6604,0.6567,0.6533,0.6519,0.6527,0.6527,0.6517,0.6516,0.6519,0.6516,0.6635,0.653,0.6531,0.6531,0.6532,0.6532,0.6808,0.6781,0.6763,0.6732,0.6716,0.6696,0.6669,0.666,0.663,0.6596,0.6597,0.6557,0.6533,0.6489,0.6472,0.6439,0.6451,0.6436,0.6432,0.6428,0.6425,0.6525,0.6432,0.6433,0.6433,0.6433,0.6433,0,0.6718,0.6708,0.6679,0.665,0.6625,0.6638,0.6614,0.6592,0.6557,0.6535,0.6508,0.6465,0.6429,0.6414,0.6378,0.6354,0.6357,0.6345,0.6346,0.6343,0.6416,0.6428,0.6343,0.6343,0.6343,0.6343,0.6344,0.6344,0.6669,0.6624,0.6622,0.6568,0.6557,0.6519,0.6505,0.6485,0.6469,0.6421,0.6393,0.6384,0.6364,0.6327,0.6295,0.6291,0.6277,0.6263,0.626,0.6329,0.6338,0.6346,0.6358,0.626,0.626,0.619,0.6189,0.6189]}]]